Location: Choisy
(48.7685°N, 2.4187°E)
Time: 21:00:59
(UTC+00:00)

USA 229 - Pass Details

Date: 24 October 2021
Orbit: 946 x 1266 km, 63.4° (Epoch: 25 November)

Event Time Altitude Azimuth Distance (km) Brightness Sun altitude
Rises 17:25:17 0° 179° (S) 3,623 6.6 -7.5°
Reaches altitude 10° 17:28:09 10° 168° (SSE) 2,706 5.8 -8.0°
Maximum altitude 17:33:20 27° 112° (ESE) 1,811 4.5 -8.8°
Drops below altitude 10° 17:38:47 10° 57° (ENE) 2,866 5.4 -9.7°
Enters shadow 17:39:31 - 54° (NE) 3,092 5.6 -9.8°
